When you browse on this site, cookies collect data to enhance your experience and personalize the content and advertising you see.
Visit our Privacy Policy to learn more. By continuing to use the site, you agree to this use of cookies and data.
  • în România
  • Lista ţărilor
  • Pe 7 zile
  • Temperatura apei
  • Hartă satelitară
  • Meteo pe hartă
  • Widget-uri
  • user-avatar
    Intrare

    Meteo pe oră la Arosa

    Astăzi, 16 Februarie, Sâmbătă

    Timp Temperatura Precipitaţii Vânt Presiune Umiditate
    00:00 -6°C° 0 mm 3 m/s 595 mmHg 45%
    01:00 -6°C° 0 mm 3 m/s 595 mmHg 48%
    02:00 -6°C° 0 mm 3 m/s 595 mmHg 48%
    03:00 -7°C° 0 mm 3 m/s 595 mmHg 48%
    04:00 -7°C° 0 mm 3 m/s 595 mmHg 48%
    05:00 -6°C° 0 mm 2 m/s 595 mmHg 46%
    06:00 -6°C° 0 mm 2 m/s 594 mmHg 44%
    07:00 -6°C° 0 mm 2 m/s 594 mmHg 42%
    08:00 -4°C° 0 mm 2 m/s 595 mmHg 47%
    09:00 -3°C° 0 mm 2 m/s 596 mmHg 52%
    10:00 +1°C° 0 mm 1 m/s 597 mmHg 57%
    11:00 +2°C° 0 mm 1 m/s 597 mmHg 67%
    12:00 +3°C° 0 mm 1 m/s 597 mmHg 76%
    13:00 +3°C° 0 mm 1 m/s 597 mmHg 85%
    14:00 +3°C° 0 mm 1 m/s 596 mmHg 79%
    15:00 +3°C° 0 mm 1 m/s 596 mmHg 73%
    16:00 +2°C° 0 mm 1 m/s 596 mmHg 67%
    17:00 +1°C° 0 mm 1 m/s 595 mmHg 58%
    18:00 -1°C° 0 mm 1 m/s 595 mmHg 50%
    19:00 -4°C° 0 mm 2 m/s 594 mmHg 41%
    20:00 -4°C° 0 mm 2 m/s 594 mmHg 38%
    21:00 -5°C° 0 mm 2 m/s 594 mmHg 35%
    22:00 -5°C° 0 mm 2 m/s 594 mmHg 32%
    23:00 -5°C° 0 mm 2 m/s 594 mmHg 31%

    Mâine, 17 Februarie, Duminică

    Timp Temperatura Precipitaţii Vânt Presiune Umiditate
    00:00 -5°C° 0 mm 2 m/s 594 mmHg 30%
    01:00 -5°C° 0 mm 2 m/s 594 mmHg 29%
    02:00 -6°C° 0 mm 2 m/s 593 mmHg 29%
    03:00 -6°C° 0 mm 2 m/s 593 mmHg 30%
    04:00 -6°C° 0 mm 2 m/s 593 mmHg 30%
    05:00 -7°C° 0 mm 3 m/s 593 mmHg 31%
    06:00 -7°C° 0 mm 3 m/s 593 mmHg 32%
    07:00 -7°C° 0 mm 3 m/s 593 mmHg 32%
    08:00 -4°C° 0 mm 2 m/s 593 mmHg 39%
    09:00 -3°C° 0 mm 2 m/s 594 mmHg 45%
    10:00 -1°C° 0 mm 2 m/s 595 mmHg 51%
    11:00 +1°C° 0 mm 2 m/s 595 mmHg 61%
    12:00 +1°C° 0 mm 2 m/s 595 mmHg 71%
    13:00 +2°C° 0 mm 2 m/s 595 mmHg 80%
    14:00 +2°C° 0 mm 2 m/s 594 mmHg 77%
    15:00 +2°C° 0 mm 2 m/s 594 mmHg 74%
    16:00 +1°C° 0 mm 2 m/s 593 mmHg 71%
    17:00 -1°C° 0 mm 2 m/s 593 mmHg 65%
    18:00 -3°C° 0 mm 2 m/s 592 mmHg 58%
    19:00 -4°C° 0 mm 2 m/s 592 mmHg 51%
    20:00 -5°C° 0 mm 2 m/s 592 mmHg 48%
    21:00 -6°C° 0 mm 3 m/s 592 mmHg 45%
    22:00 -7°C° 0 mm 3 m/s 592 mmHg 42%
    23:00 -7°C° 0 mm 3 m/s 591 mmHg 41%

    Poimâine, 18 Februarie, Luni

    Timp Temperatura Precipitaţii Vânt Presiune Umiditate
    00:00 -7°C° 0 mm 3 m/s 591 mmHg 40%
    01:00 -7°C° 0 mm 3 m/s 591 mmHg 40%
    02:00 -7°C° 0 mm 3 m/s 591 mmHg 40%
    03:00 -7°C° 0 mm 3 m/s 591 mmHg 40%
    04:00 -7°C° 0 mm 3 m/s 591 mmHg 40%
    05:00 -7°C° 0 mm 3 m/s 590 mmHg 40%
    06:00 -7°C° 0 mm 3 m/s 590 mmHg 40%
    07:00 -7°C° 0 mm 3 m/s 590 mmHg 40%
    08:00 -6°C° 0 mm 3 m/s 591 mmHg 45%
    09:00 -4°C° 0 mm 3 m/s 591 mmHg 51%
    10:00 -2°C° 0 mm 3 m/s 592 mmHg 57%
    11:00 -1°C° 0 mm 3 m/s 592 mmHg 62%
    12:00 0°C° 0 mm 3 m/s 592 mmHg 68%
    13:00 +2°C° 0 mm 2 m/s 592 mmHg 74%
    14:00 +1°C° 0 mm 2 m/s 592 mmHg 74%
    15:00 +1°C° 0 mm 2 m/s 591 mmHg 74%
    16:00 +1°C° 0 mm 2 m/s 591 mmHg 73%
    17:00 -2°C° 0 mm 2 m/s 590 mmHg 70%
    18:00 -4°C° 0 mm 2 m/s 590 mmHg 66%
    19:00 -6°C° 0 mm 3 m/s 589 mmHg 62%
    20:00 -7°C° 0 mm 3 m/s 589 mmHg 58%
    21:00 -7°C° 0 mm 3 m/s 589 mmHg 55%
    22:00 -7°C° 0 mm 3 m/s 589 mmHg 51%
    23:00 -8°C° 0 mm 3 m/s 589 mmHg 49%

    19 Februarie, Marţi

    Timp Temperatura Precipitaţii Vânt Presiune Umiditate
    00:00 -8°C° 0 mm 3 m/s 589 mmHg 47%
    01:00 -8°C° 0 mm 3 m/s 589 mmHg 45%
    02:00 -8°C° 0 mm 3 m/s 589 mmHg 45%
    03:00 -7°C° 0 mm 2 m/s 589 mmHg 44%
    04:00 -8°C° 0 mm 2 m/s 589 mmHg 43%
    05:00 -8°C° 0 mm 2 m/s 589 mmHg 43%
    06:00 -8°C° 0 mm 2 m/s 589 mmHg 43%
    07:00 -8°C° 0 mm 2 m/s 589 mmHg 43%
    08:00 -6°C° 0 mm 2 m/s 589 mmHg 47%
    09:00 -5°C° 0 mm 2 m/s 590 mmHg 50%
    10:00 -1°C° 0 mm 1 m/s 591 mmHg 53%
    11:00 -1°C° 0 mm 1 m/s 591 mmHg 54%
    12:00 0°C° 0 mm 1 m/s 591 mmHg 55%
    13:00 +1°C° 0 mm 1 m/s 592 mmHg 56%
    14:00 +1°C° 0 mm 1 m/s 591 mmHg 60%
    15:00 0°C° 0 mm 1 m/s 591 mmHg 64%
    16:00 0°C° 0 mm 1 m/s 591 mmHg 68%
    17:00 -2°C° 0 mm 1 m/s 590 mmHg 71%
    18:00 -3°C° 0 mm 1 m/s 590 mmHg 73%
    19:00 -6°C° 0 mm 0 m/s 589 mmHg 76%
    20:00 -6°C° 0 mm 1 m/s 590 mmHg 74%
    21:00 -7°C° 0 mm 1 m/s 590 mmHg 73%
    22:00 -7°C° 0 mm 1 m/s 590 mmHg 71%
    23:00 -7°C° 0 mm 1 m/s 590 mmHg 68%

    20 Februarie, Miercuri

    Timp Temperatura Precipitaţii Vânt Presiune Umiditate
    00:00 -7°C° 0 mm 1 m/s 590 mmHg 66%
    01:00 -7°C° 0 mm 1 m/s 590 mmHg 64%
    02:00 -7°C° 0 mm 1 m/s 590 mmHg 61%
    03:00 -7°C° 0 mm 1 m/s 590 mmHg 58%
    04:00 -8°C° 0 mm 2 m/s 590 mmHg 55%
    05:00 -9°C° 0 mm 2 m/s 590 mmHg 53%
    06:00 -9°C° 0 mm 2 m/s 590 mmHg 51%
    07:00 -9°C° 0 mm 2 m/s 590 mmHg 49%
    08:00 -7°C° 0 mm 2 m/s 591 mmHg 49%
    09:00 -3°C° 0 mm 1 m/s 592 mmHg 49%
    10:00 -2°C° 0 mm 1 m/s 592 mmHg 50%
    11:00 -1°C° 0 mm 1 m/s 593 mmHg 51%
    12:00 0°C° 0 mm 1 m/s 593 mmHg 52%
    13:00 +1°C° 0 mm 1 m/s 593 mmHg 53%
    14:00 +1°C° 0 mm 1 m/s 593 mmHg 56%
    15:00 +1°C° 0 mm 1 m/s 593 mmHg 59%
    16:00 0°C° 0 mm 0 m/s 593 mmHg 62%
    17:00 -2°C° 0 mm 0 m/s 592 mmHg 62%
    18:00 -4°C° 0 mm 0 m/s 592 mmHg 62%
    19:00 -5°C° 0 mm 0 m/s 591 mmHg 63%
    20:00 -4°C° 0 mm 1 m/s 592 mmHg 60%
    21:00 -4°C° 0 mm 1 m/s 592 mmHg 57%
    22:00 -4°C° 0 mm 1 m/s 592 mmHg 54%
    23:00 -4°C° 0 mm 1 m/s 592 mmHg 51%

    21 Februarie, Joi

    Timp Temperatura Precipitaţii Vânt Presiune Umiditate
    00:00 -6°C° 0 mm 1 m/s 592 mmHg 48%
    01:00 -6°C° 0 mm 1 m/s 592 mmHg 45%
    02:00 -6°C° 0 mm 1 m/s 592 mmHg 43%
    03:00 -6°C° 0 mm 1 m/s 592 mmHg 42%
    04:00 -6°C° 0 mm 1 m/s 592 mmHg 41%
    05:00 -6°C° 0 mm 1 m/s 592 mmHg 42%
    06:00 -6°C° 0 mm 1 m/s 592 mmHg 42%
    07:00 -6°C° 0 mm 1 m/s 592 mmHg 43%
    08:00 -3°C° 0 mm 1 m/s 593 mmHg 46%
    09:00 -2°C° 0 mm 1 m/s 594 mmHg 49%
    10:00 -1°C° 0 mm 0 m/s 594 mmHg 52%
    11:00 -1°C° 0 mm 0 m/s 594 mmHg 55%
    12:00 0°C° 0 mm 0 m/s 594 mmHg 57%
    13:00 +1°C° 0 mm 0 m/s 594 mmHg 60%
    14:00 +1°C° 0 mm 0 m/s 594 mmHg 62%
    15:00 +1°C° 0 mm 0 m/s 594 mmHg 64%
    16:00 0°C° 0 mm 0 m/s 594 mmHg 66%
    17:00 -1°C° 0 mm 0 m/s 593 mmHg 66%
    18:00 -2°C° 0 mm 0 m/s 593 mmHg 66%
    19:00 -2°C° 0 mm 1 m/s 593 mmHg 66%
    20:00 -3°C° 0 mm 1 m/s 593 mmHg 64%
    21:00 -3°C° 0 mm 1 m/s 593 mmHg 62%
    22:00 -3°C° 0 mm 1 m/s 593 mmHg 61%
    23:00 -3°C° 0 mm 1 m/s 593 mmHg 62%
    Arată mai mult